User: anonymous   Login
Location: *
(43.0833°N, 13.0500°E)
Time: 21:16:58
(UTC+00:00)
Language:

Feng Yun 1-1 Rocket - Orbit

View from above orbital plane
View from above orbital plane
View from above satellite
View from above satellite

Ground track
Ground track

The orbit data is extracted from the following two-line orbital elements,

1 19468U 88080B   20023.55185466  .00000214  00000-0  16291-3 0  9998
2 19468  99.2223  34.6807 0070783 283.6568 184.5733 14.03532686606605
Epoch (UTC): 23 January 2020 13:14:40
Eccentricity: 0.0070783
inclination: 99.2223°
perigee height: 830 km
apogee height: 933 km
right ascension of ascending node: 34.6807°
argument of perigee: 283.6568°
revolutions per day: 14.03532686
mean anomaly at epoch: 184.5733°
orbit number at epoch: 60660

The dashed part of the orbit path shows where the satellite is in the earth's shadow,  

DLR